Home > Weather > Sochi > Past weeks

Flag for Russia Past Weather in Sochi, Russia — Yesterday and Last 2 Weeks

Now
66 °F

Passing clouds.


Feels Like: 66 °F
Forecast: 58 / 73 °F
Wind: 6 mph from Southwest

Location: Adler

Current Time: May 30, 2016 at 7:31:04 PM

Latest Report: May 30, 2016 at 6:30 PM


Visibility: N/A

Pressure: 29.92 "Hg

Humidity: 73%

Dew Point: 57 °F

Location of SochiLocation

Past Weather in Sochi — Graph

°F

Sochi Temperature Yesterday

Maximum temperature yesterday: 68 °F (at 2:00 PM)
Minimum temperature yesterday: 63 °F (at 1:00 AM)
Average temperature yesterday: 66 °F

High & Low Weather Summary for the Past Weeks

 TemperatureHumidityPressure
High77 °F (May 28, 4:00 PM)94% (May 16, 6:00 AM)30.09 "Hg (May 16, 6:00 AM)
Low52 °F (May 20, 11:30 PM)35% (May 20, 1:30 PM)29.65 "Hg (May 25, 8:30 PM)
Average64 °F76%29.87 "Hg
* Reported May 15 6:00 PM — May 30 6:00 PM, Sochi, Weather by CustomWeather, © 2016

Note: Actual official high and low records may vary slightly from our data, if they occured in-between our weather recording intervals... More about our weather records

Advertising

Sochi Weather History for the Previous 24 Hours

Scroll right to see more
 ConditionsComfort  
Time TempWeatherWind HumidityBarometerVisibility
6:00 PM
Mon, May 30
68 °FPassing clouds.6 mph69%29.89 "HgN/A
5:30 PM68 °FPassing clouds.3 mph69%29.92 "HgN/A
5:00 PM68 °FPassing clouds.6 mph73%29.89 "HgN/A
4:30 PM70 °FPassing clouds.8 mph64%29.89 "HgN/A
4:00 PM70 °FPassing clouds.6 mph64%29.92 "HgN/A
3:30 PM70 °FPassing clouds.6 mph60%29.92 "HgN/A
3:00 PM70 °FPassing clouds.8 mph64%29.92 "HgN/A
2:30 PM70 °FScattered clouds.8 mph64%29.92 "HgN/A
2:00 PM70 °FScattered clouds.8 mph69%29.92 "HgN/A
1:30 PM70 °FPartly sunny.8 mph69%29.92 "HgN/A
1:00 PM68 °FPartly sunny.10 mph73%29.92 "HgN/A
12:30 PM68 °FPartly sunny.8 mph73%29.92 "HgN/A
12:00 PM68 °FMostly cloudy.6 mph73%29.92 "HgN/A
11:30 AM66 °FMore clouds than sun.6 mph78%29.92 "HgN/A
11:00 AM66 °FMore clouds than sun.8 mph78%29.92 "HgN/A
10:30 AM66 °FPartly sunny.8 mph73%29.92 "HgN/A
10:00 AM68 °FPartly sunny.8 mph64%29.92 "HgN/A
9:30 AM66 °FOvercast.8 mph68%29.92 "HgN/A
9:00 AM66 °FMore clouds than sun.6 mph73%29.92 "HgN/A
8:30 AM64 °FMore clouds than sun.6 mph78%29.92 "HgN/A
8:00 AM63 °FSprinkles. More clouds than sun.3 mph83%29.92 "HgN/A
7:30 AM63 °FSprinkles. More clouds than sun.3 mph88%29.89 "HgN/A
7:00 AM63 °FSprinkles. Cloudy.8 mph88%29.92 "HgN/A
6:30 AM63 °FSprinkles. Mostly cloudy.8 mph88%29.89 "HgN/A
6:00 AM63 °FSprinkles. Mostly cloudy.8 mph88%29.89 "HgN/A
5:30 AM63 °FSprinkles. Mostly cloudy.6 mph88%29.89 "HgN/A
5:00 AM63 °FSprinkles. More clouds than sun.6 mph88%29.89 "HgN/A
4:30 AM63 °FSprinkles. Mostly cloudy.10 mph88%29.89 "HgN/A
4:00 AM63 °FSprinkles. Mostly cloudy.10 mph88%29.89 "HgN/A
3:30 AM63 °FSprinkles. Mostly cloudy.6 mph88%29.89 "HgN/A
3:00 AM63 °FSprinkles. Mostly cloudy.8 mph88%29.89 "HgN/A
2:30 AM64 °FMostly cloudy.8 mph83%29.89 "HgN/A
2:00 AM64 °FMostly cloudy.10 mph83%29.92 "HgN/A
1:30 AM64 °FLow clouds.13 mph83%29.92 "HgN/A
1:00 AM64 °FLow clouds.13 mph83%29.92 "HgN/A
12:30 AM64 °FPassing clouds.10 mph83%29.92 "HgN/A
12:00 AM64 °FPartly cloudy.10 mph83%29.92 "HgN/A
11:30 PM
Sun, May 29
64 °FPartly cloudy.10 mph83%29.92 "HgN/A
11:00 PM64 °FPartly cloudy.8 mph78%29.92 "HgN/A
10:30 PM64 °FOvercast.10 mph78%29.92 "HgN/A
10:00 PM64 °FOvercast.13 mph78%29.92 "HgN/A
9:30 PM64 °FMostly cloudy.10 mph78%29.92 "HgN/A
9:00 PM66 °FMostly cloudy.13 mph73%29.92 "HgN/A
8:30 PM64 °FOvercast.13 mph78%29.92 "HgN/A
8:00 PM64 °FMostly cloudy.10 mph78%29.92 "HgN/A
7:30 PM66 °FMostly cloudy.10 mph73%29.92 "HgN/A
7:00 PM66 °FMostly cloudy.13 mph73%29.92 "HgN/A
Weather by CustomWeather, © 2016

See weather overviewHow to use our weather pages